{"data":{"norad_id":62506,"epoch":"2026-05-25T03:26:22.621632Z","epoch_age_seconds":62861,"freshness":"FRESH","line1":"1 62506U 25003V   26145.14331738  .00023066  00000+0  84478-3 0  9997","line2":"2 62506  42.9995 198.6539 0001143 295.1970  64.8763 15.27592660 78576","mean_motion":15.2759266,"eccentricity":0.0001143,"inclination_deg":42.9995,"raan_deg":198.6539,"arg_perigee_deg":295.197,"mean_anomaly_deg":64.8763,"bstar":0.00084478,"rev_number":7857,"period_min":94.265967473292,"perigee_km":482.22695846919,"apogee_km":483.7954169449,"semimajor_km":6861.148187707,"source":"CELESTRAK","updated_at":"2026-05-25T13:38:19.700415Z"}}